Location: Houston
(29.7630°N, 95.3630°W)
Time: 00:14:44
(UTC-05:00)

Amateur Radio Satellites - All Passes

Search period start: 27 March 2015 23:44
Search period end: 28 March 2015 23:44
Location: Houston, 29.7630°N, 95.3630°W

Satellite Date Start Highest point End Downlink Frequencies (MHz)
Time Altitude Azimuth
ISS 27 Mar 23:47:57 23:51:00 37° 317° (NW) 23:54:04 145.825
50 SAT 27 Mar 23:59:52 00:03:27 34° 262° (W) 00:07:02 437.505
ANTELSAT 28 Mar 00:00:16 00:04:53 85° 281° (W) 00:09:33 437.575/2403.000
UKube-1 28 Mar 00:11:07 00:13:04 12° 267° (W) 00:14:46 .
YUBILEINY 28 Mar 00:12:14 00:14:12 11° 64° (ENE) 00:17:05 435.215
QB50P1 28 Mar 00:20:46 00:25:00 83° 102° (ESE) 00:29:14 145.935-145.965
DUCHIFAT 1 28 Mar 00:23:42 00:27:56 88° 109° (ESE) 00:32:09 145.980
QB50P2 28 Mar 00:34:58 00:39:10 62° 284° (WNW) 00:43:21 145.880/145.840
VELOX 1 28 Mar 00:52:50 00:53:39 10° 269° (W) 00:54:07 145.980
CUBEBUG 1 28 Mar 00:55:15 00:58:43 22° 265° (W) 01:02:05 437.445
UNISAT 6 28 Mar 00:57:37 01:00:55 19° 288° (WNW) 01:04:05 437.425
POPSAT HIP 1 28 Mar 01:04:42 01:08:19 27° 287° (WNW) 01:11:51 437.405
SWISSCUBE 28 Mar 01:05:13 01:07:15 13° 69° (ENE) 01:09:33 437.505
TISAT 1 28 Mar 01:06:33 01:10:48 85° 258° (WSW) 01:15:01 437.305
BEESAT 28 Mar 01:08:34 01:10:33 13° 69° (ENE) 01:12:47 436.000
TIGRISAT 28 Mar 01:09:22 01:11:59 15° 289° (WNW) 01:14:23 435.000
SPROUT 28 Mar 01:10:21 01:14:36 63° 259° (W) 01:18:52 437.525
BUGSAT 1 28 Mar 01:13:35 01:17:05 28° 286° (WNW) 01:20:32 437.445
NANOSAT C BR1 28 Mar 01:16:31 01:19:39 20° 288° (WNW) 01:22:40 145.865
POLYITAN 1 28 Mar 01:19:13 01:22:13 18° 288° (WNW) 01:25:05 437.675
ESTCUBE 1 28 Mar 01:19:38 01:20:59 11° 269° (W) 01:22:00 437.505/2401.250
PCSat 28 Mar 01:31:10 01:36:36 72° 66° (ENE) 01:41:59 145.827
ITUPSAT 1 28 Mar 01:51:38 01:56:05 39° 73° (ENE) 02:00:35 437.325
Oscar 19 28 Mar 01:56:18 02:00:12 22° 95° (E) 02:04:16 437.125/150
YUBILEINY 28 Mar 02:03:49 02:12:40 81° 84° (E) 02:21:26 435.215
SWISSCUBE 28 Mar 02:40:05 02:44:44 50° 260° (W) 02:49:24 437.505
BEESAT 28 Mar 02:43:22 02:48:01 50° 260° (W) 02:52:41 436.000
RS-15 28 Mar 02:47:55 02:51:46 12° 29° (NNE) 02:56:27 29.354- 29.394
ITAMSAT 1 28 Mar 02:57:41 03:02:00 27° 97° (E) 03:06:25 435.822/435.867
KKS-1 28 Mar 03:18:45 03:23:08 65° 76° (ENE) 03:27:32 437.445
PCSat 28 Mar 03:18:50 03:19:31 10° 255° (WSW) 03:19:45 145.827
ITUPSAT 1 28 Mar 03:31:11 03:34:09 16° 267° (W) 03:36:54 437.325
Oscar 19 28 Mar 03:35:00 03:39:36 32° 288° (WNW) 03:44:08 437.125/150
Gurwin Techsat 1B 28 Mar 03:36:13 03:41:26 57° 100° (E) 03:46:40 435.225
HORYU 2 28 Mar 03:53:27 03:55:58 15° 93° (E) 03:58:43 437.375
STARS 28 Mar 03:54:41 03:59:03 74° 258° (WSW) 04:03:26 437.465
YUBILEINY 28 Mar 04:03:49 04:08:40 15° 277° (W) 04:12:48 435.215
ITAMSAT 1 28 Mar 04:37:08 04:41:26 26° 289° (WNW) 04:45:37 435.822/435.867
MOZHAYETS 4 28 Mar 04:42:43 04:46:25 25° 73° (ENE) 04:50:15
AUBIESAT-1 28 Mar 04:45:14 04:45:41 10° 63° (ENE) 04:46:25 437.475
AO-7 28 Mar 04:54:07 05:01:55 45° 101° (E) 05:09:48 29.400- 29.500
RS-15 28 Mar 04:56:53 05:08:00 51° 56° (NE) 05:19:41 29.354- 29.394
JAS-2 28 Mar 04:59:18 05:06:29 44° 96° (E) 05:13:06 435.910
O/OREOS (USA 219) 28 Mar 05:05:25 05:09:57 65° 290° (WNW) 05:14:32 437.305
M-CUBED/EXP-1 PRIME 28 Mar 05:05:35 05:08:33 22° 66° (ENE) 05:11:48 437.505
AIST 1 28 Mar 05:10:00 05:14:24 74° 276° (W) 05:18:48
SO-50 28 Mar 05:17:41 05:22:35 63° 61° (ENE) 05:27:25 436.795
Gurwin Techsat 1B 28 Mar 05:18:17 05:21:01 14° 292° (WNW) 05:23:26 435.225
VERMONT LUNAR 28 Mar 05:26:18 05:29:29 43° 146° (SE) 05:32:42 437.305
HORYU 2 28 Mar 05:28:38 05:32:46 35° 287° (WNW) 05:36:50 437.375
PHONESAT 2.4 28 Mar 05:54:02 05:57:03 27° 143° (SE) 06:00:07 2401.200-2431.200
AUBIESAT-1 28 Mar 06:16:23 06:20:03 46° 257° (WSW) 06:24:03 437.475
PRISM 28 Mar 06:18:28 06:20:39 14° 70° (ENE) 06:23:02 437.425
MOZHAYETS 4 28 Mar 06:19:56 06:23:36 23° 265° (W) 06:27:11
ISS 28 Mar 06:21:14 06:22:41 13° 34° (NE) 06:24:13 145.825
GONETS M04 28 Mar 06:22:30 06:28:36 21° 70° (ENE) 06:35:09
CUBESAT XI-V 28 Mar 06:25:27 06:29:08 24° 72° (ENE) 06:32:57 437.345
STRAND 1 28 Mar 06:36:33 06:39:55 19° 70° (ENE) 06:43:29 437.568
M-CUBED/EXP-1 PRIME 28 Mar 06:40:33 06:43:25 20° 262° (W) 06:46:22 437.505
JAS-2 28 Mar 06:44:42 06:51:14 30° 292° (WNW) 06:57:09 435.910
Cubesat XI-IV 28 Mar 06:46:31 06:50:37 23° 95° (E) 06:54:52 437.490
CUTE-I 28 Mar 06:46:48 06:50:53 23° 95° (E) 06:55:06 437.470
AO-7 28 Mar 06:47:19 06:54:30 33° 295° (WNW) 07:01:30 29.400- 29.500
SO-50 28 Mar 07:01:24 07:02:42 11° 252° (WSW) 07:03:39 436.795
VERMONT LUNAR 28 Mar 07:04:20 07:07:18 28° 339° (NNW) 07:10:14 437.305
RS-15 28 Mar 07:09:41 07:20:18 40° 251° (WSW) 07:30:59 29.354- 29.394
PHONESAT 2.4 28 Mar 07:31:58 07:35:20 40° 336° (NNW) 07:38:41 2401.200-2431.200
PRISM 28 Mar 07:52:03 07:55:53 34° 262° (W) 07:59:43 437.425
ISS 28 Mar 07:56:12 07:59:18 47° 230° (SW) 08:02:24 145.825
CUBESAT XI-V 28 Mar 08:02:34 08:06:30 25° 264° (W) 08:10:20 437.345
STRAND 1 28 Mar 08:14:02 08:18:52 40° 261° (W) 08:23:40 437.568
GONETS M04 28 Mar 08:17:27 08:26:11 65° 267° (W) 08:34:50
Cubesat XI-IV 28 Mar 08:26:03 08:30:45 32° 288° (WNW) 08:35:23 437.490
CUTE-I 28 Mar 08:26:17 08:31:00 32° 288° (WNW) 08:35:38 437.470
VERMONT LUNAR 28 Mar 08:43:58 08:45:43 13° 356° (N) 08:47:27 437.305
CUSAT 1 28 Mar 08:47:00 08:51:32 62° 82° (E) 08:57:38 437.405
SEEDS 28 Mar 09:08:58 09:10:28 12° 92° (E) 09:12:14 437.485
PHONESAT 2.4 28 Mar 09:12:02 09:14:17 16° 352° (N) 09:16:31 2401.200-2431.200
DOVE 4 28 Mar 09:20:11 09:23:01 17° 95° (E) 09:26:07 437.250
GOMX 1 28 Mar 09:23:55 09:27:40 29° 98° (E) 09:31:41 467.674
DANDE 28 Mar 09:27:50 09:32:08 64° 263° (W) 09:37:58 436.750
COMPASS 1 28 Mar 09:32:13 09:35:14 19° 94° (E) 09:38:22 437.405
CANX-2 28 Mar 09:56:48 10:01:07 72° 101° (E) 10:05:25 2200.000
HO-68 28 Mar 10:04:11 10:11:23 74° 103° (ESE) 10:18:34 435.675
BRITE-PL 28 Mar 10:08:05 10:12:07 45° 284° (WNW) 10:16:22 437.365/2234.400
CUTE 1.7 + AOD 2 28 Mar 10:10:57 10:15:17 84° 282° (WNW) 10:19:34 437.475
BEESAT 3 28 Mar 10:14:22 10:17:42 26° 112° (ESE) 10:21:10 437.485
UNISAT 6 28 Mar 10:15:43 10:17:29 13° 70° (ENE) 10:19:29 437.425
VERMONT LUNAR 28 Mar 10:21:59 10:24:17 17° 13° (NNE) 10:26:37 437.305
TIGRISAT 28 Mar 10:25:44 10:28:20 17° 71° (ENE) 10:31:07 435.000
UKube-1 28 Mar 10:28:56 10:29:49 11° 92° (E) 10:31:01 .
DELFI C3 28 Mar 10:29:08 10:32:34 26° 96° (E) 10:36:04 145.870
CUSAT 1 28 Mar 10:33:23 10:34:32 10° 264° (W) 10:35:15 437.405
DX 1 28 Mar 10:35:58 10:38:21 15° 94° (E) 10:40:56 434.975-435.025
AAUSAT CUBESAT 2 28 Mar 10:40:45 10:44:56 62° 283° (WNW) 10:49:06 437.432
AIST 2 28 Mar 10:41:12 10:43:10 13° 110° (ESE) 10:45:24 435.215
SEEDS 28 Mar 10:42:29 10:46:31 40° 285° (WNW) 10:50:29 437.485
HUMSAT D 28 Mar 10:44:16 10:45:39 12° 92° (E) 10:47:20 437.325/437.525
CINEMA 3 28 Mar 10:45:44 10:50:12 86° 282° (WNW) 10:54:52 145.822/145.860
PHONESAT 2.4 28 Mar 10:51:13 10:53:31 16° 9° (N) 10:55:51 2401.200-2431.200
ANTELSAT 28 Mar 10:53:53 10:57:48 38° 75° (ENE) 11:01:49 437.575/2403.000
Oscar 11 28 Mar 10:55:58 11:00:21 83° 102° (ESE) 11:04:42 145.826/435.025
DOVE 4 28 Mar 10:56:58 11:00:50 30° 285° (WNW) 11:04:48 437.250
GOMX 1 28 Mar 11:02:46 11:05:42 17° 287° (WNW) 11:08:33 467.674
FUNcube-1 28 Mar 11:03:49 11:08:04 48° 100° (E) 11:12:25 145.935
UWE-3 28 Mar 11:04:26 11:08:51 65° 101° (E) 11:13:22 435.000/436.395/437.385
CUBEBUG 2 28 Mar 11:06:37 11:11:05 86° 102° (ESE) 11:15:41 437.445
COMPASS 1 28 Mar 11:07:24 11:10:55 25° 287° (WNW) 11:14:19 437.405
QB50P1 28 Mar 11:08:09 11:11:43 27° 73° (ENE) 11:15:20 145.935-145.965
VELOX 1 28 Mar 11:10:31 11:13:00 15° 94° (E) 11:15:43 145.980
DUCHIFAT 1 28 Mar 11:10:44 11:14:20 29° 74° (ENE) 11:18:00 145.980
BEESAT 2 28 Mar 11:12:48 11:16:52 68° 298° (WNW) 11:21:00 435.950
AISAT 28 Mar 11:14:14 11:17:09 18° 94° (E) 11:20:14 437.250
ZACube-1 28 Mar 11:16:03 11:20:27 71° 101° (E) 11:24:56 437.345
QB50P2 28 Mar 11:22:03 11:26:01 42° 75° (ENE) 11:30:02 145.880/145.840
ESTCUBE 1 28 Mar 11:39:27 11:42:17 17° 94° (E) 11:45:17 437.505/2401.250
50 SAT 28 Mar 11:43:22 11:47:12 42° 99° (E) 11:51:05 437.505
UNISAT 6 28 Mar 11:50:00 11:53:59 38° 262° (W) 11:57:59 437.425
POPSAT HIP 1 28 Mar 11:50:52 11:55:06 81° 258° (WSW) 11:59:19 437.405
BEESAT 3 28 Mar 11:52:41 11:55:46 20° 305° (NW) 11:58:46 437.485
HO-68 28 Mar 11:54:04 11:58:30 17° 296° (WNW) 12:02:30 435.675
BUGSAT 1 28 Mar 11:56:59 12:01:11 83° 79° (E) 12:05:20 437.445
VERMONT LUNAR 28 Mar 11:59:05 12:02:26 63° 28° (NNE) 12:05:47 437.305
TIGRISAT 28 Mar 12:01:12 12:04:55 29° 263° (W) 12:08:36 435.000
NANOSAT C BR1 28 Mar 12:02:06 12:06:16 57° 259° (W) 12:10:26 145.865
UKube-1 28 Mar 12:02:07 12:06:15 44° 286° (WNW) 12:10:21 .
DELFI C3 28 Mar 12:04:51 12:07:35 17° 288° (WNW) 12:10:09 145.870
POLYITAN 1 28 Mar 12:05:14 12:09:21 51° 260° (W) 12:13:27 437.675
DX 1 28 Mar 12:10:49 12:14:44 33° 286° (WNW) 12:18:34 434.975-435.025
AIST 2 28 Mar 12:17:31 12:21:29 38° 301° (WNW) 12:25:29 435.215
HUMSAT D 28 Mar 12:17:37 12:21:39 41° 285° (WNW) 12:25:40 437.325/437.525
PHONESAT 2.4 28 Mar 12:29:01 12:32:27 44° 25° (NNE) 12:35:52 2401.200-2431.200
ANTELSAT 28 Mar 12:33:04 12:34:50 12° 268° (W) 12:36:22 437.575/2403.000
FUNcube-1 28 Mar 12:42:30 12:44:05 11° 290° (WNW) 12:45:24 145.935
QB50P1 28 Mar 12:44:46 12:47:38 17° 266° (W) 12:50:19 145.935-145.965
VELOX 1 28 Mar 12:45:44 12:49:42 33° 286° (WNW) 12:53:37 145.980
DUCHIFAT 1 28 Mar 12:47:30 12:50:14 16° 266° (W) 12:52:47 145.980
CUBEBUG 1 28 Mar 12:49:08 12:53:27 72° 283° (WNW) 12:57:44 437.445
AISAT 28 Mar 12:49:59 12:53:48 29° 287° (WNW) 12:57:33 437.250
JUGNU 28 Mar 12:51:36 12:53:24 11° 161° (SSE) 12:55:23 437.505
TISAT 1 28 Mar 12:57:56 13:01:16 24° 96° (E) 13:04:42 437.305
QB50P2 28 Mar 13:00:59 13:02:11 11° 268° (W) 13:03:06 145.880/145.840
SPROUT 28 Mar 13:03:19 13:07:13 34° 98° (E) 13:11:08 437.525
YUBILEINY 28 Mar 13:04:32 13:09:19 17° 84° (E) 13:14:46 435.215
Oscar 19 28 Mar 13:08:06 13:11:21 18° 70° (ENE) 13:14:48 437.125/150
ESTCUBE 1 28 Mar 13:15:14 13:19:15 31° 287° (WNW) 13:23:11 437.505/2401.250
50 SAT 28 Mar 13:20:51 13:21:49 11° 289° (WNW) 13:22:30 437.505
VERMONT LUNAR 28 Mar 13:37:47 13:39:56 16° 219° (SW) 13:42:00 437.305
ITUPSAT 1 28 Mar 13:59:28 14:02:27 17° 94° (E) 14:05:37 437.325
PHONESAT 2.4 28 Mar 14:07:42 14:10:41 25° 217° (SW) 14:13:39 2401.200-2431.200
ITAMSAT 1 28 Mar 14:10:09 14:14:09 24° 71° (ENE) 14:18:19 435.822/435.867
PCSat 28 Mar 14:24:55 14:28:54 22° 107° (ESE) 14:33:04 145.827
TISAT 1 28 Mar 14:33:51 14:36:57 20° 288° (WNW) 14:39:56 437.305
JUGNU 28 Mar 14:37:18 14:41:57 24° 168° (SSE) 14:46:38 437.505
SPROUT 28 Mar 14:40:38 14:43:03 14° 289° (WNW) 14:45:17 437.525
Oscar 19 28 Mar 14:45:38 14:50:26 40° 261° (W) 14:55:13 437.125/150
SWISSCUBE 28 Mar 14:46:25 14:51:12 69° 101° (ESE) 14:55:56 437.505
BEESAT 28 Mar 14:49:36 14:54:21 68° 101° (E) 14:59:07 436.000
Gurwin Techsat 1B 28 Mar 14:51:18 14:56:24 49° 74° (ENE) 15:01:32 435.225
YUBILEINY 28 Mar 14:56:37 15:05:24 75° 277° (W) 15:14:14 435.215
KKS-1 28 Mar 15:16:47 15:20:02 20° 95° (E) 15:23:26 437.445
O/OREOS (USA 219) 28 Mar 15:21:29 15:26:03 88° 72° (ENE) 15:30:32 437.305
AIST 1 28 Mar 15:25:05 15:27:28 15° 75° (ENE) 15:30:01
SRMSAT 28 Mar 15:34:54 15:38:56 19° 165° (SSE) 15:43:02 437.500
ITUPSAT 1 28 Mar 15:36:06 15:40:29 36° 287° (WNW) 15:44:48 437.325
AO-7 28 Mar 15:46:49 15:54:06 37° 66° (ENE) 16:01:33 29.400- 29.500
ITAMSAT 1 28 Mar 15:48:52 15:53:31 31° 263° (W) 15:58:05 435.822/435.867
STARS 28 Mar 15:50:50 15:54:46 32° 98° (E) 15:58:44 437.465
PCSat 28 Mar 16:07:07 16:12:07 36° 300° (WNW) 16:17:05 145.827
HORYU 2 28 Mar 16:20:31 16:24:56 83° 258° (WSW) 16:29:23 437.375
JUGNU 28 Mar 16:25:18 16:30:32 32° 178° (S) 16:35:46 437.505
Gurwin Techsat 1B 28 Mar 16:33:38 16:36:42 15° 268° (W) 16:39:28 435.225
JAS-2 28 Mar 16:47:41 16:54:12 71° 75° (ENE) 17:01:34 435.910
KKS-1 28 Mar 16:52:57 16:56:41 26° 287° (WNW) 17:00:17 437.445
AIST 1 28 Mar 17:01:27 17:05:14 29° 268° (W) 17:08:55
SRMSAT 28 Mar 17:22:32 17:27:39 30° 174° (S) 17:32:44 437.500
STARS 28 Mar 17:28:09 17:31:00 17° 289° (WNW) 17:33:41 437.465
AO-7 28 Mar 17:39:06 17:46:49 40° 260° (W) 17:54:25 29.400- 29.500
Cubesat XI-IV 28 Mar 18:02:58 18:06:57 22° 70° (ENE) 18:11:06 437.490
CUTE-I 28 Mar 18:03:06 18:07:03 22° 70° (ENE) 18:11:11 437.470
AUBIESAT-1 28 Mar 18:03:36 18:07:31 25° 99° (E) 18:11:24 437.475
JUGNU 28 Mar 18:14:07 18:19:09 28° 188° (S) 18:24:09 437.505
MOZHAYETS 4 28 Mar 18:20:06 18:24:41 59° 284° (WNW) 18:29:13
M-CUBED/EXP-1 PRIME 28 Mar 18:26:33 18:31:18 54° 104° (ESE) 18:35:54 437.505
JAS-2 28 Mar 18:36:13 18:40:09 15° 273° (W) 18:43:49 435.910
SRMSAT 28 Mar 19:11:15 19:16:24 31° 184° (S) 19:21:32 437.500
RS-15 28 Mar 19:12:42 19:23:14 58° 111° (ESE) 19:33:53 29.354- 29.394
GONETS M04 28 Mar 19:15:43 19:22:44 30° 87° (E) 19:30:04
SO-50 28 Mar 19:26:15 19:30:47 83° 116° (ESE) 19:35:30 436.795
AUBIESAT-1 28 Mar 19:38:11 19:42:15 27° 292° (WNW) 19:46:07 437.475
BEESAT 2 28 Mar 19:39:48 19:41:31 13° 51° (NE) 19:43:26 435.950
PRISM 28 Mar 19:40:21 19:44:25 51° 100° (E) 19:48:26 437.425
Cubesat XI-IV 28 Mar 19:41:57 19:46:52 35° 262° (W) 19:51:43 437.490
CUTE-I 28 Mar 19:42:02 19:46:57 35° 262° (W) 19:51:49 437.470
M-CUBED/EXP-1 PRIME 28 Mar 20:03:14 20:05:44 14° 296° (WNW) 20:07:57 437.505
JUGNU 28 Mar 20:04:01 20:07:41 16° 196° (SSW) 20:11:15 437.505
CUBESAT XI-V 28 Mar 20:04:35 20:09:09 61° 284° (WNW) 20:13:39 437.345
BEESAT 3 28 Mar 20:16:16 20:20:06 38° 59° (ENE) 20:23:53 437.485
HO-68 28 Mar 20:26:55 20:32:50 30° 68° (ENE) 20:38:56 435.675
GOMX 1 28 Mar 20:27:36 20:30:29 17° 73° (ENE) 20:33:25 467.674
STRAND 1 28 Mar 20:30:23 20:35:29 71° 283° (WNW) 20:40:32 437.568
CANX-2 28 Mar 20:44:37 20:47:55 23° 73° (ENE) 20:51:21 2200.000
AIST 2 28 Mar 20:45:21 20:48:40 22° 55° (NE) 20:52:01 435.215
DANDE 28 Mar 20:57:00 20:57:25 10° 98° (E) 20:58:02 436.750
CUTE 1.7 + AOD 2 28 Mar 20:58:17 21:01:58 31° 74° (ENE) 21:05:44 437.475
SRMSAT 28 Mar 21:00:45 21:05:07 21° 193° (SSW) 21:09:25 437.500
GONETS M04 28 Mar 21:11:03 21:19:18 46° 282° (WNW) 21:27:32
BRITE-PL 28 Mar 21:12:36 21:17:33 82° 258° (WSW) 21:22:07 437.365/2234.400
BEESAT 2 28 Mar 21:16:02 21:19:57 44° 247° (WSW) 21:23:48 435.950
AAUSAT CUBESAT 2 28 Mar 21:25:48 21:29:38 38° 75° (ENE) 21:33:32 437.432
RS-15 28 Mar 21:26:29 21:36:09 34° 311° (NW) 21:45:41 29.354- 29.394
SEEDS 28 Mar 21:28:16 21:32:24 62° 77° (ENE) 21:36:35 437.485
CINEMA 3 28 Mar 21:42:14 21:46:11 39° 75° (ENE) 21:50:06 145.822/145.860
Oscar 11 28 Mar 21:45:14 21:48:55 29° 74° (ENE) 21:52:41 145.826/435.025
COMPASS 1 28 Mar 21:51:54 21:56:04 80° 258° (WSW) 22:00:17 437.405
CUSAT 1 28 Mar 21:52:45 21:55:57 52° 278° (W) 21:58:39 437.405
FUNcube-1 28 Mar 21:55:20 21:57:57 17° 72° (ENE) 22:00:44 145.935
BEESAT 3 28 Mar 21:56:07 21:57:50 12° 251° (WSW) 21:59:20 437.485
DOVE 4 28 Mar 21:56:30 22:00:55 59° 260° (W) 22:05:09 437.250
UWE-3 28 Mar 21:56:50 22:00:05 23° 73° (ENE) 22:03:26 435.000/436.395/437.385
CUBEBUG 2 28 Mar 21:59:45 22:03:26 31° 74° (ENE) 22:07:09 437.445
GOMX 1 28 Mar 22:04:19 22:08:29 31° 262° (W) 22:12:23 467.674
ZACube-1 28 Mar 22:07:08 22:10:28 24° 73° (ENE) 22:13:54 437.345
HO-68 28 Mar 22:13:40 22:20:22 41° 261° (W) 22:27:02 435.675
CANX-2 28 Mar 22:20:38 22:23:49 20° 265° (W) 22:26:55 2200.000
AIST 2 28 Mar 22:23:48 22:27:12 23° 249° (WSW) 22:30:28 435.215
50 SAT 28 Mar 22:26:20 22:27:22 11° 71° (ENE) 22:28:38 437.505
CUTE 1.7 + AOD 2 28 Mar 22:35:26 22:38:00 15° 267° (W) 22:40:22 437.475
DANDE 28 Mar 22:38:20 22:40:39 16° 279° (W) 22:42:37 436.750
DELFI C3 28 Mar 22:45:16 22:49:16 60° 260° (W) 22:53:17 145.870
UKube-1 28 Mar 22:50:43 22:55:01 68° 76° (ENE) 22:59:20 .
ANTELSAT 28 Mar 22:52:58 22:55:24 15° 93° (E) 22:58:07 437.575/2403.000
ISS 28 Mar 22:54:23 22:57:38 87° 134° (SE) 23:00:53 145.825
DX 1 28 Mar 22:59:51 23:04:13 86° 257° (WSW) 23:08:36 434.975-435.025
HUMSAT D 28 Mar 23:03:25 23:07:26 60° 77° (ENE) 23:11:29 437.325/437.525
AAUSAT CUBESAT 2 28 Mar 23:03:49 23:05:30 12° 268° (W) 23:06:53 437.432
QB50P2 28 Mar 23:15:44 23:16:58 11° 92° (E) 23:18:29 145.880/145.840
CINEMA 3 28 Mar 23:22:12 23:23:38 11° 268° (W) 23:24:45 145.822/145.860
Oscar 11 28 Mar 23:22:18 23:25:10 17° 267° (W) 23:27:52 145.826/435.025
FUNcube-1 28 Mar 23:30:38 23:34:09 26° 264° (W) 23:37:36 145.935
UWE-3 28 Mar 23:33:35 23:36:37 19° 265° (W) 23:39:32 435.000/436.395/437.385
CUBEBUG 2 28 Mar 23:38:00 23:40:16 14° 267° (W) 23:42:18 437.445
